MPEC 2003-E29 : S/2003 J 9, 2003 J 10, 2003 J 11, 2003 J 12; S/2003 J 1, 2003 J 6

The following Minor Planet Electronic Circular may be linked-to from your own Web pages, but must not otherwise be redistributed electronically.


Read MPEC 2003-E28 Read MPEC 2003-E30


M.P.E.C. 2003-E29                                Issued 2003 Mar. 7, 22:10 UT

     The Minor Planet Electronic Circulars contain information on unusual
         minor planets and routine data on comets.  They are published
   on behalf of Commission 20 of the International Astronomical Union by the
          Minor Planet Center, Smithsonian Astrophysical Observatory,
                          Cambridge, MA 02138, U.S.A.

             Prepared using the Tamkin Foundation Computer Network

                              MPC@CFA.HARVARD.EDU
          URL http://cfa-www.harvard.edu/iau/mpc.html  ISSN 1523-6714

       S/2003 J 9, 2003 J 10, 2003 J 11, 2003 J 12; S/2003 J 1, 2003 J 6

                       Partial revision to MPEC 2003-E11

Observations:
    SK03J090  C2003 02 06.32341 09 06 15.44 +18 02 36.5          23.6 R      568
    SK03J090  C2003 02 06.38207 09 06 13.64 +18 02 43.9                      568
    SK03J090  C2003 02 08.54660 09 05 08.41 +18 07 14.0                      568
    SK03J090  C2003 02 08.55576 09 05 08.17 +18 07 14.7                      568
    SK03J090  C2003 02 24.45242 08 57 40.66 +18 36 19.5                      568
    SK03J090  C2003 02 24.47662 08 57 40.04 +18 36 22.0          23.8 R      568
    SK03J090  C2003 03 07.25347 08 53 36.33 +18 50 28.8                      568
    SK03J090  C2003 03 07.31749 08 53 35.02 +18 50 32.9                      568
    SK03J100  C2003 02 06.37887 09 09 41.08 +16 51 19.6                      568
    SK03J100  C2003 02 06.41413 09 09 39.92 +16 51 25.2                      568
    SK03J100  C2003 02 09.50816 09 08 02.46 +16 59 24.1                      568
    SK03J100  C2003 02 09.51619 09 08 02.22 +16 59 25.3                      568
    SK03J100  C2003 02 24.45756 09 00 38.28 +17 35 06.6                      568
    SK03J100  C2003 02 24.48178 09 00 37.60 +17 35 09.5          23.6 R      568
    SK03J100  C2003 03 07.25529 08 56 10.92 +17 56 12.4                      568
    SK03J100  C2003 03 07.31931 08 56 09.48 +17 56 18.9                      568
    SK03J110  C2003 02 06.45622 09 03 13.06 +17 07 43.7          23.9 R      568
    SK03J110  C2003 02 06.47625 09 03 12.35 +17 07 46.6                      568
    SK03J110  C2003 02 09.57303 09 01 25.56 +17 15 29.7                      568
    SK03J110  C2003 02 09.58006 09 01 25.28 +17 15 31.8                      568
    SK03J110  C2003 02 25.44958 08 52 53.02 +17 51 53.0                      568
    SK03J110  C2003 02 25.47360 08 52 52.30 +17 51 56.1          23.4 R      568
    SK03J110  C2003 03 07.25711 08 48 29.95 +18 10 08.7                      568
    SK03J110  C2003 03 07.32112 08 48 28.38 +18 10 14.5                      568
    SK03J120  C2003 02 08.52660 09 08 21.50 +17 12 51.2          24   R      568
    SK03J120  C2003 02 08.53529 09 08 21.22 +17 12 52.3                      568
    SK03J120  C2003 02 09.54736 09 07 49.42 +17 14 45.9                      568
    SK03J120  C2003 02 09.55534 09 07 49.16 +17 14 46.6                      568
    SK03J120  C2003 02 24.45756 09 00 25.96 +17 40 06.1                      568
    SK03J120  C2003 02 24.48178 09 00 25.29 +17 40 08.4          23.8 R      568
    SK03J120  C2003 03 07.25166 08 55 58.90 +17 53 59.9                      568
    SK03J120  C2003 03 07.31565 08 55 57.41 +17 54 03.7                      568

Observer details:
568 Mauna Kea.  Observers S. S. Sheppard, D. C. Jewitt, J. Kleyna, Y. R.
    Fernandez.  Measurer S. S. Sheppard.  8.3-m Subaru Telescope
    + CCD, 3.6-m Canada-France-Hawaii Telescope + CCD, 2.2-m University of
    Hawaii Telescope + CCD.

Orbital elements:
S/2003 J 9
Epoch 2003 June 10.0 TT = JDT 2452800.5                 MPC
M 224.82724              (2000.0)            P               Q
n   0.52627443     Peri.  327.84527     -0.04604634     +0.97081352
a   0.1496112      Node    61.46531     +0.96384242     -0.01873087
e   0.2687371      Incl.  164.45956     +0.26246433     +0.23910304
P   1.87           H   17.2           P/d   684.05
Residuals in seconds of arc
K0326  568  0.4-  0.0     K0328  568  0.7+  0.2-    K0337  568  0.1+  0.1-
K0326  568  0.2-  0.1-    K032O  568  0.2-  0.0     K0337  568  0.1-  0.1-
K0328  568  0.1+  0.2+    K032O  568  0.0   0.3+

S/2003 J 10
Epoch 2003 June 10.0 TT = JDT 2452800.5                 MPC
M 180.39316              (2000.0)            P               Q
n   0.46853115     Peri.  185.19980     +0.97928606     -0.20002063
a   0.1616640      Node   173.40546     -0.17449057     -0.75479630
e   0.2137608      Incl.  164.09424     -0.10272225     -0.62471937
P   2.10           H   16.7           P/d   768.36
Residuals in seconds of arc
K0326  568  0.7+  0.1+    K0329  568  0.5-  0.0     K0337  568  0.1-  0.3+
K0326  568  0.4+  0.1+    K032O  568  0.2+  0.2-    K0337  568  0.0   0.1+
K0329  568  0.8-  0.0     K032O  568  0.2+  0.4-

S/2003 J 11
Epoch 2003 June 10.0 TT = JDT 2452800.5                 MPC
M 318.50709              (2000.0)            P               Q
n   0.52790689     Peri.   17.05105     +0.90887406     +0.37574749
a   0.1493026      Node    40.64628     +0.34287146     -0.92023946
e   0.2233774      Incl.  163.86678     +0.23745968     -0.10942195
P   1.87           H   16.8           P/d   681.94
Residuals in seconds of arc
K0326  568  0.2-  0.4+    K0329  568  0.0   0.1+    K0337  568  0.0   0.2+
K0326  568  0.2-  0.3+    K032P  568  0.1-  0.1+    K0337  568  0.1+  0.4-
K0329  568  0.5+  1.0-    K032P  568  0.1-  0.3+

S/2003 J 12
Epoch 2003 June 10.0 TT = JDT 2452800.5                 MPC
M 229.11535              (2000.0)            P               Q
n   0.67542918     Peri.   23.36186     +0.70957304     +0.49537384
a   0.1266832      Node    62.93716     +0.52445450     -0.84624190
e   0.3759365      Incl.  145.75566     +0.47058856     +0.19616170
P   1.46           H   17.2           P/d   532.99
Residuals in seconds of arc
K0328  568  0.2+  0.0     K0329  568  0.2-  0.2-    K0337  568  0.3+  0.2+
K0328  568  0.2+  0.1+    K032O  568  0.0   0.0     K0337  568  0.4-  0.2-
K0329  568  0.2-  0.0     K032O  568  0.1+  0.1+

Ephemerides:
    S/2003 J 9                                                   q = 0.1094
Date    TT    R. A. (2000) Decl.     Delta     r_J   dR.A. ("/m)  dDecl. ("/')
2003 03 02    08 55.56   +18 44.0    4.293    0.190  5068+/5.95+   209+/  3.5+
2003 03 12    08 52.27   +18 54.7    4.393    0.190  5216+/6.13+    40+/  0.7+
2003 03 22    08 50.10   +19 00.4    4.516    0.190  5350+/6.29+   137-/  2.3-
2003 04 01    08 49.18   +19 00.8    4.657    0.190  5471+/6.43+   322-/  5.4-
2003 04 11    08 49.54   +18 56.1    4.813    0.189  5581+/6.56+   512-/  8.5-
2003 04 21    08 51.14   +18 46.5    4.977    0.189  5677+/6.66+   705-/ 11.7-
2003 05 01    08 53.90   +18 32.2    5.146    0.188  5755+/6.74+   897-/ 14.9-
2003 05 11    08 57.72   +18 13.6    5.316    0.187  5812+/6.80+  1086-/ 18.1-
2003 05 21    09 02.45   +17 50.9    5.483    0.185  5843+/6.82+  1269-/ 21.1-
2003 05 31    09 07.98   +17 24.5    5.645    0.184  5844+/6.81+  1444-/ 24.1-
2003 06 10    09 14.19   +16 54.5    5.797    0.182  5813+/6.75+  1607-/ 26.8-
2003 06 20    09 20.94   +16 21.5    5.938    0.180  5746+/6.65+  1758-/ 29.3-
2003 06 30    09 28.14   +15 45.6    6.064    0.178  5641+/6.51+  1892-/ 31.5-
2003 07 10    09 35.68   +15 07.2    6.176    0.176  5498+/6.33+  2009-/ 33.5-

    S/2003 J 10                                                  q = 0.1271
Date    TT    R. A. (2000) Decl.     Delta     r_J   dR.A. ("/m)  dDecl. ("/')
2003 03 02    08 58.25   +17 46.4    4.519    0.189  7405+/8.64+  3246-/ 54.1-
2003 03 12    08 54.58   +18 03.7    4.623    0.190  7225+/8.44+  3017-/ 50.3-
2003 03 22    08 51.98   +18 16.3    4.750    0.191  6979+/8.17+  2783-/ 46.4-
2003 04 01    08 50.57   +18 23.7    4.894    0.192  6676+/7.82+  2548-/ 42.5-
2003 04 11    08 50.39   +18 26.0    5.052    0.193  6325+/7.41+  2317-/ 38.6-
2003 04 21    08 51.43   +18 23.4    5.218    0.194  5934+/6.95+  2092-/ 34.9-
2003 05 01    08 53.61   +18 16.0    5.388    0.195  5512+/6.45+  1872-/ 31.2-
2003 05 11    08 56.84   +18 04.1    5.557    0.196  5064+/5.92+  1655-/ 27.6-
2003 05 21    09 01.00   +17 48.0    5.722    0.196  4598+/5.37+  1441-/ 24.0-
2003 05 31    09 05.97   +17 28.1    5.879    0.196  4116+/4.79+  1226-/ 20.4-
2003 06 10    09 11.65   +17 04.5    6.026    0.196  3623+/4.21+  1008-/ 16.8-
2003 06 20    09 17.91   +16 37.7    6.159    0.196  3123+/3.62+   787-/ 13.1-
2003 06 30    09 24.65   +16 07.8    6.276    0.196  2619+/3.03+   559-/  9.3-
2003 07 10    09 31.79   +15 35.2    6.376    0.195  2112+/2.44+   325-/  5.4-

